This demonstration page uses our WeatherBlox Daily Observations layout. Learn more.

Left ArrowRight Arrow

Hourly Observations for June 29, 2016

Temp ( °F °C ) Dew Point ( °F °C ) Humidity (%) Winds ( mph kmh ) Pressure ( in mb ) Visibility ( mi km ) Precip ( " mm )
12:53 am 00:53 Clear 80 26.7 55 12.8 42 42 N 6 9 29.85 1011 10 16 0.00 0.00
1:53 am 01:53 Clear 78 25.6 57 13.9 48 48 N 5 7 29.85 1011 10 16 0.00 0.00
2:53 am 02:53 Clear 76 24.4 57 13.9 52 52 N 5 7 29.85 1011 10 16 0.00 0.00
3:53 am 03:53 Clear 76 24.4 53 11.7 45 45 N 6 9 29.85 1011 10 16 0.00 0.00
4:53 am 04:53 Clear 74 23.3 56 13.3 54 54 NNW 5 7 29.85 1011 10 16 0.00 0.00
5:53 am 05:53 Sunny 75 23.9 56 13.3 52 52 NNW 5 7 29.85 1011 10 16 0.00 0.00
6:53 am 06:53 Sunny 77 25 57 13.9 50 50 NNW 3 6 29.86 1011 10 16 0.00 0.00
7:53 am 07:53 Sunny 83 28.3 58 14.4 43 43 NNW 5 7 29.86 1011 10 16 0.00 0.00
8:53 am 08:53 Sunny 89 31.7 55 12.8 31 31 N 7 11 29.86 1011 10 16 0.00 0.00
9:53 am 09:53 Sunny 92 33.3 55 12.8 29 29 N 10 17 29.86 1011 10 16 0.00 0.00
10:53 am 10:53 Sunny 96 35.6 55 12.8 25 25 N 8 13 29.85 1011 10 16 0.00 0.00
11:53 am 11:53 Sunny 99 37.2 54 12.2 22 22 NW 6 9 29.84 1011 10 16 0.00 0.00
12:53 pm 12:53 Sunny 102 38.9 50 10 17 17 VRB 3 6 29.83 1010 10 16 0.00 0.00
1:53 pm 13:53 Sunny 103 39.4 46 7.8 15 15 undefined N/A 29.81 1010 10 16 0.00 0.00
2:53 pm 14:53 Sunny 104 40 34 1.1 9 9 WSW 6 9 29.80 1009 10 16 0.00 0.00
3:53 pm 15:53 Sunny 106 41.1 38 3.3 10 10 NNW 6 9 29.78 1009 10 16 0.00 0.00
4:53 pm 16:53 Sunny 105 40.6 38 3.3 10 10 SW 6 9 29.77 1008 10 16 0.00 0.00
5:53 pm 17:53 Sunny 104 40 39 3.9 11 11 S 7 11 29.75 1008 10 16 0.00 0.00
6:53 pm 18:53 Sunny 103 39.4 45 7.2 14 14 S 9 15 29.75 1008 10 16 0.00 0.00
7:53 pm 19:53 Sunny 98 36.7 50 10 20 20 S 9 15 29.75 1008 10 16 0.00 0.00
8:53 pm 20:53 Clear 93 33.9 51 10.6 24 24 SSW 6 9 29.77 1008 10 16 0.00 0.00
9:53 pm 21:53 Clear 86 30 54 12.2 33 33 N 6 9 29.78 1009 10 16 0.00 0.00
10:53 pm 22:53 Clear 84 28.9 54 12.2 36 36 ESE 5 7 29.80 1009 10 16 0.00 0.00
11:53 pm 23:53 Clear 82 27.8 53 11.7 37 37 N 7 11 29.81 1009 10 16 0.00 0.00

Powered by AerisWeather